• In Deutschland
  • Länderverzeichnis
  • Für 7 Tage
  • Wassertemperatur
  • Satellitenkarten
  • Wetterkarte
  • Widgets
  • user-avatar
    Anmelden

    Stündliche Wetter Pernik

    Heute, 20 August, Sonntag

    Zeit Temperatur Niederschläge Wind Luftdruck Luftfeuchtigkeit
    00:00 +19°C° 0 mm 1 m/S 692 mmHg 51%
    01:00 +19°C° 0 mm 1 m/S 692 mmHg 52%
    02:00 +18°C° 0 mm 2 m/S 692 mmHg 53%
    03:00 +19°C° 0 mm 1 m/S 692 mmHg 55%
    04:00 +18°C° 0 mm 1 m/S 691 mmHg 57%
    05:00 +18°C° 0 mm 1 m/S 691 mmHg 58%
    06:00 +20°C° 0 mm 1 m/S 692 mmHg 54%
    07:00 +22°C° 0 mm 1 m/S 692 mmHg 49%
    08:00 +24°C° 0 mm 1 m/S 693 mmHg 45%
    09:00 +26°C° 0 mm 1 m/S 693 mmHg 40%
    10:00 +28°C° 0 mm 1 m/S 693 mmHg 35%
    11:00 +30°C° 0 mm 1 m/S 693 mmHg 30%
    12:00 +30°C° 0 mm 1 m/S 693 mmHg 29%
    13:00 +31°C° 0 mm 1 m/S 692 mmHg 28%
    14:00 +31°C° 0 mm 2 m/S 692 mmHg 26%
    15:00 +30°C° 0 mm 2 m/S 692 mmHg 28%
    16:00 +30°C° 0 mm 2 m/S 691 mmHg 29%
    17:00 +29°C° 0 mm 2 m/S 691 mmHg 30%
    18:00 +27°C° 0 mm 2 m/S 690 mmHg 34%
    19:00 +25°C° 0 mm 1 m/S 690 mmHg 39%
    20:00 +22°C° 0 mm 1 m/S 690 mmHg 44%
    21:00 +21°C° 0 mm 1 m/S 690 mmHg 49%
    22:00 +20°C° 0 mm 1 m/S 690 mmHg 54%
    23:00 +20°C° 0 mm 1 m/S 690 mmHg 59%

    Morgen, 21 August, Montag

    Zeit Temperatur Niederschläge Wind Luftdruck Luftfeuchtigkeit
    00:00 +18°C° 0 mm 2 m/S 690 mmHg 65%
    01:00 +17°C° 0 mm 2 m/S 690 mmHg 71%
    02:00 +17°C° 0 mm 2 m/S 690 mmHg 77%
    03:00 +16°C° 0 mm 2 m/S 690 mmHg 81%
    04:00 +16°C° 0 mm 2 m/S 690 mmHg 84%
    05:00 +16°C° 0 mm 1 m/S 690 mmHg 88%
    06:00 +17°C° 0 mm 2 m/S 690 mmHg 84%
    07:00 +18°C° 0 mm 2 m/S 691 mmHg 80%
    08:00 +19°C° 0 mm 2 m/S 691 mmHg 76%
    09:00 +19°C° 0 mm 3 m/S 691 mmHg 71%
    10:00 +20°C° 0 mm 3 m/S 691 mmHg 66%
    11:00 +21°C° 0 mm 3 m/S 692 mmHg 61%
    12:00 +21°C° 0,2 mm 3 m/S 692 mmHg 59%
    13:00 +22°C° 0,2 mm 4 m/S 691 mmHg 58%
    14:00 +22°C° 0,2 mm 4 m/S 691 mmHg 57%
    15:00 +21°C° 0,1 mm 4 m/S 691 mmHg 58%
    16:00 +21°C° 0,1 mm 4 m/S 691 mmHg 60%
    17:00 +20°C° 0,1 mm 4 m/S 690 mmHg 61%
    18:00 +19°C° 0 mm 3 m/S 690 mmHg 66%
    19:00 +17°C° 0 mm 3 m/S 690 mmHg 72%
    20:00 +16°C° 0 mm 2 m/S 690 mmHg 77%
    21:00 +15°C° 0 mm 2 m/S 690 mmHg 80%
    22:00 +14°C° 0 mm 2 m/S 691 mmHg 84%
    23:00 +13°C° 0 mm 1 m/S 691 mmHg 87%

    übermorgen, 22 August, Dienstag

    Zeit Temperatur Niederschläge Wind Luftdruck Luftfeuchtigkeit
    00:00 +12°C° 0 mm 1 m/S 690 mmHg 87%
    01:00 +12°C° 0 mm 1 m/S 690 mmHg 86%
    02:00 +11°C° 0 mm 1 m/S 690 mmHg 86%
    03:00 +11°C° 0 mm 1 m/S 690 mmHg 85%
    04:00 +11°C° 0 mm 1 m/S 690 mmHg 83%
    05:00 +10°C° 0 mm 1 m/S 690 mmHg 82%
    06:00 +12°C° 0 mm 2 m/S 691 mmHg 74%
    07:00 +14°C° 0 mm 2 m/S 691 mmHg 65%
    08:00 +16°C° 0 mm 3 m/S 692 mmHg 56%
    09:00 +18°C° 0 mm 3 m/S 692 mmHg 48%
    10:00 +19°C° 0 mm 3 m/S 693 mmHg 41%
    11:00 +21°C° 0 mm 4 m/S 693 mmHg 33%
    12:00 +22°C° 0 mm 4 m/S 693 mmHg 31%
    13:00 +23°C° 0 mm 4 m/S 693 mmHg 29%
    14:00 +25°C° 0 mm 4 m/S 692 mmHg 27%
    15:00 +23°C° 0 mm 4 m/S 692 mmHg 28%
    16:00 +23°C° 0 mm 4 m/S 692 mmHg 29%
    17:00 +24°C° 0 mm 3 m/S 692 mmHg 31%
    18:00 +20°C° 0 mm 3 m/S 692 mmHg 39%
    19:00 +18°C° 0 mm 2 m/S 692 mmHg 47%
    20:00 +15°C° 0 mm 1 m/S 691 mmHg 55%
    21:00 +14°C° 0 mm 1 m/S 692 mmHg 59%
    22:00 +14°C° 0 mm 1 m/S 692 mmHg 63%
    23:00 +13°C° 0 mm 1 m/S 692 mmHg 66%

    23 August, Mittwoch

    Zeit Temperatur Niederschläge Wind Luftdruck Luftfeuchtigkeit
    00:00 +12°C° 0 mm 1 m/S 692 mmHg 69%
    01:00 +12°C° 0 mm 1 m/S 692 mmHg 71%
    02:00 +11°C° 0 mm 1 m/S 692 mmHg 73%
    03:00 +11°C° 0 mm 1 m/S 692 mmHg 74%
    04:00 +11°C° 0 mm 1 m/S 692 mmHg 74%
    05:00 +11°C° 0 mm 1 m/S 692 mmHg 75%
    06:00 +13°C° 0 mm 1 m/S 692 mmHg 66%
    07:00 +15°C° 0 mm 1 m/S 693 mmHg 57%
    08:00 +18°C° 0 mm 1 m/S 694 mmHg 48%
    09:00 +20°C° 0 mm 1 m/S 694 mmHg 42%
    10:00 +21°C° 0 mm 2 m/S 694 mmHg 36%
    11:00 +24°C° 0 mm 2 m/S 695 mmHg 30%
    12:00 +25°C° 0 mm 2 m/S 694 mmHg 28%
    13:00 +26°C° 0 mm 2 m/S 694 mmHg 25%
    14:00 +26°C° 0 mm 3 m/S 694 mmHg 23%
    15:00 +26°C° 0 mm 3 m/S 694 mmHg 23%
    16:00 +26°C° 0 mm 3 m/S 694 mmHg 24%
    17:00 +26°C° 0 mm 3 m/S 694 mmHg 24%
    18:00 +23°C° 0 mm 2 m/S 694 mmHg 31%
    19:00 +19°C° 0 mm 2 m/S 693 mmHg 38%
    20:00 +16°C° 0 mm 1 m/S 693 mmHg 45%
    21:00 +15°C° 0 mm 1 m/S 693 mmHg 47%
    22:00 +14°C° 0 mm 1 m/S 694 mmHg 50%
    23:00 +14°C° 0 mm 1 m/S 694 mmHg 53%

    24 August, Donnerstag

    Zeit Temperatur Niederschläge Wind Luftdruck Luftfeuchtigkeit
    00:00 +13°C° 0 mm 1 m/S 694 mmHg 54%
    01:00 +13°C° 0 mm 1 m/S 694 mmHg 55%
    02:00 +13°C° 0 mm 1 m/S 694 mmHg 56%
    03:00 +12°C° 0 mm 1 m/S 694 mmHg 57%
    04:00 +12°C° 0 mm 1 m/S 694 mmHg 57%
    05:00 +12°C° 0 mm 1 m/S 694 mmHg 58%
    06:00 +14°C° 0 mm 1 m/S 694 mmHg 52%
    07:00 +16°C° 0 mm 0 m/S 695 mmHg 47%
    08:00 +18°C° 0 mm 0 m/S 696 mmHg 41%
    09:00 +22°C° 0 mm 1 m/S 696 mmHg 37%
    10:00 +24°C° 0 mm 1 m/S 697 mmHg 32%
    11:00 +26°C° 0 mm 1 m/S 697 mmHg 27%
    12:00 +27°C° 0 mm 2 m/S 697 mmHg 25%
    13:00 +28°C° 0 mm 2 m/S 697 mmHg 23%
    14:00 +29°C° 0 mm 2 m/S 696 mmHg 21%
    15:00 +28°C° 0 mm 2 m/S 696 mmHg 22%
    16:00 +28°C° 0 mm 2 m/S 696 mmHg 22%
    17:00 +28°C° 0 mm 2 m/S 696 mmHg 23%
    18:00 +25°C° 0 mm 2 m/S 695 mmHg 29%
    19:00 +21°C° 0 mm 2 m/S 695 mmHg 35%
    20:00 +19°C° 0 mm 1 m/S 695 mmHg 41%
    21:00 +18°C° 0 mm 1 m/S 695 mmHg 43%
    22:00 +16°C° 0 mm 1 m/S 695 mmHg 45%
    23:00 +15°C° 0 mm 1 m/S 695 mmHg 47%

    25 August, Freitag

    Zeit Temperatur Niederschläge Wind Luftdruck Luftfeuchtigkeit
    00:00 +15°C° 0 mm 1 m/S 695 mmHg 48%
    01:00 +14°C° 0 mm 1 m/S 695 mmHg 49%
    02:00 +14°C° 0 mm 1 m/S 695 mmHg 50%
    03:00 +14°C° 0 mm 1 m/S 695 mmHg 51%
    04:00 +13°C° 0 mm 1 m/S 695 mmHg 52%
    05:00 +13°C° 0 mm 1 m/S 695 mmHg 53%
    06:00 +15°C° 0 mm 1 m/S 696 mmHg 48%
    07:00 +18°C° 0 mm 1 m/S 697 mmHg 44%
    08:00 +20°C° 0 mm 1 m/S 697 mmHg 40%
    09:00 +23°C° 0 mm 1 m/S 697 mmHg 35%
    10:00 +25°C° 0 mm 1 m/S 698 mmHg 30%
    11:00 +27°C° 0 mm 2 m/S 698 mmHg 25%
    12:00 +28°C° 0 mm 2 m/S 698 mmHg 24%
    13:00 +29°C° 0 mm 2 m/S 697 mmHg 22%
    14:00 +30°C° 0 mm 2 m/S 697 mmHg 20%
    15:00 +30°C° 0 mm 2 m/S 697 mmHg 21%
    16:00 +29°C° 0 mm 3 m/S 696 mmHg 22%
    17:00 +29°C° 0 mm 3 m/S 696 mmHg 23%
    18:00 +26°C° 0 mm 2 m/S 696 mmHg 29%
    19:00 +23°C° 0 mm 2 m/S 695 mmHg 35%
    20:00 +20°C° 0 mm 1 m/S 695 mmHg 42%
    21:00 +19°C° 0 mm 1 m/S 695 mmHg 43%
    22:00 +17°C° 0 mm 2 m/S 695 mmHg 45%
    23:00 +16°C° 0 mm 2 m/S 695 mmHg 46%
    Mehr zeigen